Flag Weather past 2 weeks in Emden, Lower Saxony, Germany

Now
30 °F

Low clouds.


Feels Like: 27 °F
Forecast: 37 / 44 °F
Wind: 3 mph from Southeast

Location: Emden-Koenigspolder

Current Time: Nov 21, 2014 at 9:37:05 AM

Latest Report: Nov 21, 2014 at 9:00 AM


Visibility: 0 mi

Pressure: 30.29 "Hg

Humidity: 99%

Dew point: 30 °F

Location of EmdenLocation

Historic Weather in Emden — Graph

°F

Emden temperature yesterday

Maximum temperature yesterday: 48 °F (at 1:00 PM)
Minimum temperature yesterday: 33 °F (at 11:00 PM)
Average temperature yesterday: 43 °F

Past Weeks' High & Low Weather Summary

 TemperatureHumidityPressure
High54 °F (Nov 8, 3:00 PM)100% (Nov 6, 9:00 AM)30.37 "Hg (Nov 6, 9:00 AM)
Low28 °F (Nov 21, 6:00 AM)72% (Nov 7, 7:00 PM)29.47 "Hg (Nov 16, 2:00 PM)
Average46 °F91%29.82 "Hg
* Reported Nov 6 8:00 AM — Nov 21 8:00 AM, Emden, Weather by CustomWeather, © 2014

Note: Actual official high and low records may vary slightly from our data, if they occured in-between our weather recording intervals... More about our weather records

Advertising

Emden weather history for previous 24 hours

 ConditionsComfort  
Time TempWeatherWind HumidityBarometerVisibility
8:00 AM
Nov 21
30 °FLow clouds.2 mph100%30.29 "Hg0 mi
7:00 AM29 °FClear.2 mph100%30.29 "Hg0 mi
6:00 AM28 °FClear.2 mph99%30.30 "Hg0 mi
5:00 AM28 °FClear.1 mph99%30.30 "Hg2 mi
3:00 AM29 °FClear.1 mph100%30.32 "HgN/A
2:00 AM29 °FClear.2 mph99%30.33 "Hg0 mi
1:00 AM30 °FClear.1 mph100%30.34 "Hg0 mi
12:00 AM31 °FClear.1 mph98%30.35 "Hg1 mi
11:00 PM
Nov 20
33 °FClear.1 mph98%30.35 "Hg0 mi
9:00 PM36 °FPassing clouds.1 mph99%30.35 "Hg2 mi
8:00 PM39 °FFog.2 mph98%30.35 "Hg2 mi
7:00 PM38 °FPassing clouds.2 mph97%30.35 "Hg3 mi
6:00 PM39 °FFog.1 mph97%30.35 "Hg3 mi
5:00 PM39 °FFog.2 mph95%30.34 "Hg3 mi
4:00 PM44 °FPassing clouds.2 mph83%30.34 "Hg8 mi
3:00 PM47 °FSunny.3 mph75%30.34 "Hg11 mi
2:00 PM48 °FSunny.3 mph76%30.35 "Hg6 mi
1:00 PM48 °FSunny.N/A74%30.36 "Hg4 mi
12:00 PM47 °FFog.6 mph82%30.36 "Hg4 mi
11:00 AM46 °FFog.3 mph90%30.37 "Hg3 mi
10:00 AMN/APassing clouds.8 mphN/AN/A3 mi
9:00 AM44 °FFog.2 mph93%30.36 "Hg3 mi
Weather by CustomWeather, © 2014

See weather overviewHow to use our weather pages